History for KIDP

Independence, KS

Daily Weekly Monthly
Daily Summary for Wednesday, March 20, 2019
  Actual: Average: Record:
Temperature
Mean Temperature: 50 °F / 10 °C - :  
Max Temperature: 60 °F / 16 °C - - (-1)
Min Temperature: 41 °F / 5 °C - - (-1)
Degree Days
Heating Degree Days: 14    
Moisture
Dew Point 37 °F / 3 °C    
Average Humidity 69    
Maximum Humidity 95    
Minimum Humidity 34    
Precipitation
Precipitation 0.00 in / 0.00 cm - - ()
Sea Level Pressure
Sea Level Pressure 30.19 in / 1022 hPa   
Wind
Wind Speed 11 mph / 18 km/h (WNW)  
Max Wind Speed 20 mph / 32 km/h   
Max Gust Speed 24 mph / 39 km/h   
Visibility 10 miles / 16 kilometers   
Events     
Averages and records for this station are not official NWS values.
Key: T is trace of precipitation, MM is missing value
Source: NWS Daily Summary

Graphs

Observations

History Graphs Observations

Obs Go Here...

Features

Weather Apps

WunderRadio

Weather Underground Apps
Check out our wide variety of mobile and setup applications.

Weather Underground Applications

Top of Page

© Copyright 2019
The Weather Company, LLC
Time(CDT)TemperatureDew PointHumidity Sea Level Pressure Visibility Wind DirectionWind SpeedGust SpeedPrecipitationEvents Conditions
12:15 AM 49.6 °F / 9.8 °C 48.2 °F / 9.0 °C 95% 30.19 in / 1022.2 hPa 10.0 miles / 16.1 kilometers WSW 8.1 mph / 13.0 km/h - N/A   Overcast
12:35 AM 48.6 °F / 9.2 °C 45.5 °F / 7.5 °C 89% 30.20 in / 1022.6 hPa 10.0 miles / 16.1 kilometers WNW 16.1 mph / 25.9 km/h - N/A   Overcast
12:55 AM 46.6 °F / 8.1 °C 43.3 °F / 6.3 °C 88% 30.20 in / 1022.6 hPa 10.0 miles / 16.1 kilometers WNW 16.1 mph / 25.9 km/h - N/A   Overcast
1:15 AM 45.9 °F / 7.7 °C 42.4 °F / 5.8 °C 88% 30.20 in / 1022.6 hPa 10.0 miles / 16.1 kilometers NW 15.0 mph / 24.1 km/h - N/A   Overcast
1:35 AM 45.0 °F / 7.2 °C 41.2 °F / 5.1 °C 87% 30.20 in / 1022.6 hPa 10.0 miles / 16.1 kilometers NW 10.4 mph / 16.7 km/h - N/A   Overcast
1:55 AM 44.2 °F / 6.8 °C 40.8 °F / 4.9 °C 88% 30.20 in / 1022.6 hPa 10.0 miles / 16.1 kilometers NW 9.2 mph / 14.8 km/h - N/A   Overcast
2:15 AM 43.3 °F / 6.3 °C 40.1 °F / 4.5 °C 88% 30.20 in / 1022.6 hPa 10.0 miles / 16.1 kilometers WNW 8.1 mph / 13.0 km/h - N/A   Mostly Cloudy
2:35 AM 42.6 °F / 5.9 °C 39.4 °F / 4.1 °C 88% 30.21 in / 1022.9 hPa 10.0 miles / 16.1 kilometers WNW 5.8 mph / 9.3 km/h - N/A   Scattered Clouds
2:55 AM 43.2 °F / 6.2 °C 39.9 °F / 4.4 °C 88% 30.21 in / 1022.9 hPa 10.0 miles / 16.1 kilometers West 6.9 mph / 11.1 km/h - N/A   Scattered Clouds
3:15 AM 43.2 °F / 6.2 °C 39.7 °F / 4.3 °C 88% 30.22 in / 1023.2 hPa 10.0 miles / 16.1 kilometers West 8.1 mph / 13.0 km/h - N/A   Scattered Clouds
3:35 AM 43.2 °F / 6.2 °C 39.9 °F / 4.4 °C 88% 30.21 in / 1022.9 hPa 10.0 miles / 16.1 kilometers West 8.1 mph / 13.0 km/h - N/A   Scattered Clouds
3:55 AM 43.2 °F / 6.2 °C 39.9 °F / 4.4 °C 88% 30.21 in / 1022.9 hPa 10.0 miles / 16.1 kilometers West 9.2 mph / 14.8 km/h - N/A   Mostly Cloudy
4:15 AM 43.3 °F / 6.3 °C 40.1 °F / 4.5 °C 88% 30.21 in / 1022.9 hPa 10.0 miles / 16.1 kilometers WSW 8.1 mph / 13.0 km/h - N/A   Mostly Cloudy
4:35 AM 43.0 °F / 6.1 °C 40.3 °F / 4.6 °C 90% 30.21 in / 1022.9 hPa 10.0 miles / 16.1 kilometers West 9.2 mph / 14.8 km/h - N/A   Mostly Cloudy
4:55 AM 42.8 °F / 6.0 °C 40.3 °F / 4.6 °C 91% 30.21 in / 1022.9 hPa 10.0 miles / 16.1 kilometers West 8.1 mph / 13.0 km/h - N/A   Scattered Clouds
5:15 AM 43.0 °F / 6.1 °C 40.1 °F / 4.5 °C 90% 30.20 in / 1022.6 hPa 10.0 miles / 16.1 kilometers West 10.4 mph / 16.7 km/h - N/A   Scattered Clouds
5:35 AM 43.0 °F / 6.1 °C 39.6 °F / 4.2 °C 88% 30.20 in / 1022.6 hPa 10.0 miles / 16.1 kilometers West 10.4 mph / 16.7 km/h - N/A   Scattered Clouds
5:55 AM 42.8 °F / 6.0 °C 39.4 °F / 4.1 °C 88% 30.21 in / 1022.9 hPa 10.0 miles / 16.1 kilometers WNW 10.4 mph / 16.7 km/h - N/A   Scattered Clouds
6:15 AM 42.4 °F / 5.8 °C 39.2 °F / 4.0 °C 88% 30.21 in / 1022.9 hPa 10.0 miles / 16.1 kilometers WNW 12.7 mph / 20.4 km/h - N/A   Clear
6:35 AM 42.4 °F / 5.8 °C 39.2 °F / 4.0 °C 88% 30.21 in / 1022.9 hPa 10.0 miles / 16.1 kilometers WNW 11.5 mph / 18.5 km/h - N/A   Clear
6:55 AM 42.1 °F / 5.6 °C 39.0 °F / 3.9 °C 89% 30.22 in / 1023.2 hPa 10.0 miles / 16.1 kilometers WNW 10.4 mph / 16.7 km/h - N/A   Clear
7:15 AM 42.1 °F / 5.6 °C 38.8 °F / 3.8 °C 88% 30.22 in / 1023.2 hPa 10.0 miles / 16.1 kilometers WNW 9.2 mph / 14.8 km/h - N/A   Clear
7:35 AM 41.9 °F / 5.5 °C 38.7 °F / 3.7 °C 88% 30.23 in / 1023.6 hPa 10.0 miles / 16.1 kilometers West 10.4 mph / 16.7 km/h - N/A   Clear
7:55 AM 41.7 °F / 5.4 °C 38.7 °F / 3.7 °C 89% 30.23 in / 1023.6 hPa 10.0 miles / 16.1 kilometers WNW 9.2 mph / 14.8 km/h - N/A   Clear
8:15 AM 41.7 °F / 5.4 °C 38.7 °F / 3.7 °C 89% 30.24 in / 1023.9 hPa 10.0 miles / 16.1 kilometers WNW 10.4 mph / 16.7 km/h - N/A   Mostly Cloudy
8:35 AM 42.1 °F / 5.6 °C 39.0 °F / 3.9 °C 89% 30.24 in / 1023.9 hPa 10.0 miles / 16.1 kilometers West 9.2 mph / 14.8 km/h 18.4 mph / 29.6 km/h N/A   Overcast
8:55 AM 42.3 °F / 5.7 °C 39.2 °F / 4.0 °C 89% 30.25 in / 1024.3 hPa 10.0 miles / 16.1 kilometers West 12.7 mph / 20.4 km/h - N/A   Overcast
9:15 AM 43.5 °F / 6.4 °C 39.9 °F / 4.4 °C 87% 30.25 in / 1024.3 hPa 10.0 miles / 16.1 kilometers WNW 15.0 mph / 24.1 km/h - N/A   Overcast
9:35 AM 44.6 °F / 7.0 °C 41.0 °F / 5.0 °C 87% 30.25 in / 1024.3 hPa 10.0 miles / 16.1 kilometers WNW 13.8 mph / 22.2 km/h - N/A   Overcast
9:55 AM 45.7 °F / 7.6 °C 40.8 °F / 4.9 °C 83% 30.26 in / 1024.6 hPa 10.0 miles / 16.1 kilometers NW 17.3 mph / 27.8 km/h 24.2 mph / 38.9 km/h N/A   Mostly Cloudy
10:15 AM 45.3 °F / 7.4 °C 40.1 °F / 4.5 °C 82% 30.26 in / 1024.6 hPa 10.0 miles / 16.1 kilometers NW 15.0 mph / 24.1 km/h - N/A   Mostly Cloudy
10:35 AM 48.2 °F / 9.0 °C 42.1 °F / 5.6 °C 79% 30.26 in / 1024.6 hPa 10.0 miles / 16.1 kilometers NW 15.0 mph / 24.1 km/h 21.9 mph / 35.2 km/h N/A   Mostly Cloudy
10:55 AM 50.2 °F / 10.1 °C 41.5 °F / 5.3 °C 72% 30.25 in / 1024.3 hPa 10.0 miles / 16.1 kilometers NW 13.8 mph / 22.2 km/h - N/A   Mostly Cloudy
11:15 AM 50.7 °F / 10.4 °C 41.5 °F / 5.3 °C 71% 30.25 in / 1024.3 hPa 10.0 miles / 16.1 kilometers NW 12.7 mph / 20.4 km/h 19.6 mph / 31.5 km/h N/A   Mostly Cloudy
11:35 AM 50.2 °F / 10.1 °C 39.2 °F / 4.0 °C 66% 30.24 in / 1023.9 hPa 10.0 miles / 16.1 kilometers NNW 15.0 mph / 24.1 km/h - N/A   Mostly Cloudy
11:55 AM 49.5 °F / 9.7 °C 39.9 °F / 4.4 °C 70% 30.24 in / 1023.9 hPa 10.0 miles / 16.1 kilometers NW 10.4 mph / 16.7 km/h - N/A   Overcast
12:15 PM 50.7 °F / 10.4 °C 40.5 °F / 4.7 °C 68% 30.23 in / 1023.6 hPa 10.0 miles / 16.1 kilometers West 13.8 mph / 22.2 km/h 18.4 mph / 29.6 km/h N/A   Overcast
12:35 PM 52.7 °F / 11.5 °C 40.1 °F / 4.5 °C 62% 30.23 in / 1023.6 hPa 10.0 miles / 16.1 kilometers NW 13.8 mph / 22.2 km/h 21.9 mph / 35.2 km/h N/A   Overcast
12:55 PM 52.7 °F / 11.5 °C 39.9 °F / 4.4 °C 62% 30.22 in / 1023.2 hPa 10.0 miles / 16.1 kilometers WNW 11.5 mph / 18.5 km/h 19.6 mph / 31.5 km/h N/A   Overcast
1:15 PM 53.4 °F / 11.9 °C 37.9 °F / 3.3 °C 56% 30.21 in / 1022.9 hPa 10.0 miles / 16.1 kilometers WNW 12.7 mph / 20.4 km/h - N/A   Overcast
1:35 PM 53.6 °F / 12.0 °C 38.8 °F / 3.8 °C 57% 30.21 in / 1022.9 hPa 10.0 miles / 16.1 kilometers WNW 12.7 mph / 20.4 km/h - N/A   Overcast
1:55 PM 54.0 °F / 12.2 °C 37.9 °F / 3.3 °C 55% 30.20 in / 1022.6 hPa 10.0 miles / 16.1 kilometers NW 12.7 mph / 20.4 km/h 20.7 mph / 33.3 km/h N/A   Overcast
2:15 PM 54.9 °F / 12.7 °C 38.1 °F / 3.4 °C 53% 30.19 in / 1022.2 hPa 10.0 miles / 16.1 kilometers NNW 11.5 mph / 18.5 km/h - N/A   Mostly Cloudy
2:35 PM 56.3 °F / 13.5 °C 37.4 °F / 3.0 °C 49% 30.18 in / 1021.9 hPa 10.0 miles / 16.1 kilometers WNW 13.8 mph / 22.2 km/h 18.4 mph / 29.6 km/h N/A   Mostly Cloudy
2:55 PM 58.1 °F / 14.5 °C 37.4 °F / 3.0 °C 46% 30.17 in / 1021.6 hPa 10.0 miles / 16.1 kilometers West 17.3 mph / 27.8 km/h 21.9 mph / 35.2 km/h N/A   Mostly Cloudy
3:15 PM 56.7 °F / 13.7 °C 37.2 °F / 2.9 °C 48% 30.16 in / 1021.2 hPa 10.0 miles / 16.1 kilometers WNW 16.1 mph / 25.9 km/h 21.9 mph / 35.2 km/h N/A   Mostly Cloudy
3:55 PM 58.6 °F / 14.8 °C 36.3 °F / 2.4 °C 43% 30.14 in / 1020.5 hPa 10.0 miles / 16.1 kilometers WNW 16.1 mph / 25.9 km/h - N/A   Scattered Clouds
4:15 PM 58.6 °F / 14.8 °C 34.5 °F / 1.4 °C 40% 30.13 in / 1020.2 hPa 10.0 miles / 16.1 kilometers WNW 13.8 mph / 22.2 km/h - N/A   Mostly Cloudy
4:35 PM 59.9 °F / 15.5 °C 33.3 °F / 0.7 °C 37% 30.13 in / 1020.2 hPa 10.0 miles / 16.1 kilometers WNW 13.8 mph / 22.2 km/h 19.6 mph / 31.5 km/h N/A   Scattered Clouds
4:55 PM 60.4 °F / 15.8 °C 33.3 °F / 0.7 °C 36% 30.12 in / 1019.9 hPa 10.0 miles / 16.1 kilometers WNW 19.6 mph / 31.5 km/h - N/A   Scattered Clouds
5:15 PM 60.3 °F / 15.7 °C 32.0 °F / -0.0 °C 34% 30.12 in / 1019.9 hPa 10.0 miles / 16.1 kilometers West 13.8 mph / 22.2 km/h - N/A   Scattered Clouds
5:35 PM 60.3 °F / 15.7 °C 32.5 °F / 0.3 °C 35% 30.12 in / 1019.9 hPa 10.0 miles / 16.1 kilometers WNW 12.7 mph / 20.4 km/h - N/A   Clear
5:55 PM 60.1 °F / 15.6 °C 32.4 °F / 0.2 °C 35% 30.11 in / 1019.5 hPa 10.0 miles / 16.1 kilometers West 13.8 mph / 22.2 km/h 19.6 mph / 31.5 km/h N/A   Clear
6:35 PM 59.0 °F / 15.0 °C 31.1 °F / -0.5 °C 35% 30.12 in / 1019.9 hPa 10.0 miles / 16.1 kilometers WNW 16.1 mph / 25.9 km/h 21.9 mph / 35.2 km/h N/A   Clear
6:55 PM 58.1 °F / 14.5 °C 31.8 °F / -0.1 °C 37% 30.12 in / 1019.9 hPa 10.0 miles / 16.1 kilometers West 13.8 mph / 22.2 km/h - N/A   Clear
7:15 PM 56.3 °F / 13.5 °C 32.4 °F / 0.2 °C 40% 30.12 in / 1019.9 hPa 10.0 miles / 16.1 kilometers West 10.4 mph / 16.7 km/h 17.3 mph / 27.8 km/h N/A   Clear
7:35 PM 54.0 °F / 12.2 °C 32.2 °F / 0.1 °C 44% 30.13 in / 1020.2 hPa 10.0 miles / 16.1 kilometers West 9.2 mph / 14.8 km/h - N/A   Clear
7:55 PM 53.2 °F / 11.8 °C 31.5 °F / -0.3 °C 43% 30.13 in / 1020.2 hPa 10.0 miles / 16.1 kilometers West 6.9 mph / 11.1 km/h - N/A   Clear
8:15 PM 50.9 °F / 10.5 °C 32.2 °F / 0.1 °C 49% 30.13 in / 1020.2 hPa 10.0 miles / 16.1 kilometers WSW 6.9 mph / 11.1 km/h - N/A   Clear
8:35 PM 49.6 °F / 9.8 °C 32.0 °F / 0.0 °C 51% 30.13 in / 1020.2 hPa 10.0 miles / 16.1 kilometers WSW 5.8 mph / 9.3 km/h - N/A   Clear
8:55 PM 47.3 °F / 8.5 °C 32.4 °F / 0.2 °C 56% 30.13 in / 1020.2 hPa 10.0 miles / 16.1 kilometers SW 5.8 mph / 9.3 km/h - N/A   Clear
9:15 PM 46.2 °F / 7.9 °C 32.5 °F / 0.3 °C 59% 30.13 in / 1020.2 hPa 10.0 miles / 16.1 kilometers SW 6.9 mph / 11.1 km/h - N/A   Clear
9:35 PM 44.1 °F / 6.7 °C 32.7 °F / 0.4 °C 64% 30.13 in / 1020.2 hPa 10.0 miles / 16.1 kilometers SW 5.8 mph / 9.3 km/h - N/A   Clear
9:55 PM 45.0 °F / 7.2 °C 32.7 °F / 0.4 °C 62% 30.13 in / 1020.2 hPa 10.0 miles / 16.1 kilometers SW 5.8 mph / 9.3 km/h - N/A   Clear
10:15 PM 43.2 °F / 6.2 °C 32.7 °F / 0.4 °C 67% 30.13 in / 1020.2 hPa 10.0 miles / 16.1 kilometers SW 5.8 mph / 9.3 km/h - N/A   Clear
10:35 PM 43.3 °F / 6.3 °C 32.5 °F / 0.3 °C 66% 30.13 in / 1020.2 hPa 10.0 miles / 16.1 kilometers WSW 6.9 mph / 11.1 km/h - N/A   Clear
10:55 PM 43.7 °F / 6.5 °C 32.2 °F / 0.1 °C 64% 30.13 in / 1020.2 hPa 10.0 miles / 16.1 kilometers WSW 8.1 mph / 13.0 km/h - N/A   Clear
11:15 PM 43.9 °F / 6.6 °C 31.8 °F / -0.1 °C 63% 30.13 in / 1020.2 hPa 10.0 miles / 16.1 kilometers WSW 8.1 mph / 13.0 km/h - N/A   Clear
11:35 PM 42.8 °F / 6.0 °C 32.2 °F / 0.1 °C 66% 30.13 in / 1020.2 hPa 10.0 miles / 16.1 kilometers WSW 9.2 mph / 14.8 km/h - N/A   Clear
11:55 PM 42.4 °F / 5.8 °C 32.0 °F / 0.0 °C 67% 30.13 in / 1020.2 hPa 10.0 miles / 16.1 kilometers WSW 8.1 mph / 13.0 km/h - N/A   Clear